Home   Weather   Chester   Past weeks

Flag for United Kingdom Past Weather in Chester, England, United Kingdom — Yesterday and Last 2 Weeks

Now
39 °F

Chilly.


Feels Like: 33 °F
Forecast: 42 / 54 °F
Wind: 8 mph from West

Location: Hawarden

Current Time: Apr 27, 2017 at 4:53:27 am

Latest Report: Apr 27, 2017 at 4:00 am


Visibility: 25 mi

Pressure: 30.15 "Hg

Humidity: 78%

Dew Point: 32 °F

Location of ChesterLocation

Past Weather in Chester — Graph

°F

Chester Temperature Yesterday

Maximum temperature yesterday: 47 °F (at 1:00 pm)
Minimum temperature yesterday: 36 °F (at 6:00 am)
Average temperature yesterday: 42 °F

High & Low Weather Summary for the Past Weeks

 TemperatureHumidityPressure
High59 °F (Apr 20, 2:00 pm)98% (Apr 20, 6:00 am)30.62 "Hg (Apr 20, 6:00 am)
Low34 °F (Apr 25, 5:00 am)43% (Apr 24, 7:00 pm)29.92 "Hg (Apr 25, 3:00 am)
Average48 °F69%30.31 "Hg
* Reported Apr 19 8:00 am — Apr 27 3:00 am, Chester, Weather by CustomWeather, © 2017

Note: Actual official high and low records may vary slightly from our data, if they occured in-between our weather recording intervals... More about our weather records

Advertising

Chester Weather History for the Previous 24 Hours

Scroll right to see more
 ConditionsComfort  
Time TempWeatherWind HumidityBarometerVisibility
3:00 am
Thu, Apr 27
39 °FChilly.8 mph78%30.15 "Hg28 mi
2:00 am41 °FQuite cool.6 mph77%30.16 "Hg22 mi
1:00 am40 °FChilly.5 mph75%30.17 "Hg28 mi
12:00 am40 °FChilly.3 mph73%30.17 "Hg22 mi
11:00 pm
Wed, Apr 26
41 °FQuite cool.5 mph71%30.18 "Hg22 mi
10:00 pm42 °FQuite cool.6 mph69%30.17 "Hg28 mi
9:00 pm44 °FQuite cool.6 mph59%30.17 "Hg31 mi
8:00 pm46 °FCool.10 mph51%30.16 "Hg28 mi
7:00 pm46 °FCool.12 mph49%30.16 "Hg25 mi
6:00 pm47 °FCool.12 mph48%30.16 "Hg28 mi
4:00 pm47 °FCool.10 mph47%30.17 "Hg17 mi
3:00 pm46 °FCool.12 mph48%30.17 "Hg25 mi
2:00 pm46 °FCool.12 mph51%30.17 "Hg19 mi
1:00 pm47 °FCool.12 mph49%30.17 "Hg25 mi
12:00 pm45 °FQuite cool.12 mph52%30.16 "Hg14 mi
11:00 am45 °FQuite cool.9 mph54%30.15 "Hg25 mi
10:00 am44 °FQuite cool.9 mph56%30.16 "Hg15 mi
9:00 am43 °FQuite cool.12 mph59%30.16 "Hg14 mi
8:00 am40 °FChilly.8 mph68%30.16 "Hg12 mi
7:00 am38 °FChilly.8 mph73%30.14 "Hg14 mi
6:00 am36 °FChilly.6 mph76%30.14 "Hg15 mi
5:00 am37 °FChilly.8 mph75%30.13 "Hg17 mi
4:00 am38 °FChilly.8 mph73%30.12 "Hg22 mi
Weather by CustomWeather, © 2017

See weather overviewHow to use our weather pages